Flag for Nigeria Weather past 2 weeks in Enugu, Nigeria

Now
77 °F

Strong thunderstorms. Partly cloudy.


Feels Like: 78 °F
Forecast: 75 / 88 °F
Wind: 23 mph from East

Location: Douala Obs.

Current Time: Oct 26, 2014 at 6:24:30 AM

Latest Report: Oct 26, 2014 at 6:00 AM


Visibility: 1 mi

Pressure: 29.89 "Hg

Humidity: 94%

Dew point: 75 °F

Location of EnuguLocation

Historic Weather in Enugu — Graph

°F

Enugu temperature yesterday

Maximum temperature yesterday: 81 °F (at 2:00 PM)
Minimum temperature yesterday: 75 °F (at 12:00 PM)
Average temperature yesterday: 78 °F

Past Weeks' High & Low Weather Summary

 TemperatureHumidityPressure
High91 °F (Oct 24, 2:00 PM)100% (Oct 11, 5:00 AM)30.01 "Hg (Oct 11, 5:00 AM)
Low73 °F (Oct 12, 4:00 AM)56% (Oct 24, 2:00 PM)29.74 "Hg (Oct 25, 4:00 PM)
Average79 °F89%29.89 "Hg
* Reported Oct 11 5:00 AM — Oct 26 5:00 AM, Enugu, Weather by CustomWeather, © 2014

Note: Actual official high and low records may vary slightly from our data, if they occured in-between our weather recording intervals... More about our weather records

Advertising

Enugu weather history for previous 24 hours

 ConditionsComfort  
Time TempWeatherWind HumidityBarometerVisibility
5:00 AM
Oct 26
77 °FPartly cloudy.No wind94%29.86 "Hg4 mi
4:00 AM75 °FPartly cloudy.No wind100%29.86 "Hg4 mi
3:00 AM77 °FPassing clouds.No wind94%29.86 "HgN/A
2:00 AM77 °FPassing clouds.No wind94%29.86 "HgN/A
1:00 AM77 °FPassing clouds.No wind94%29.89 "HgN/A
12:00 AM75 °FPassing clouds.No wind100%29.89 "HgN/A
11:00 PM
Oct 25
75 °FPassing clouds.No wind100%29.89 "HgN/A
10:00 PM77 °FPassing clouds.No wind94%29.89 "HgN/A
9:00 PM77 °FPartly cloudy.No wind94%29.89 "Hg5 mi
8:00 PM77 °FPartly cloudy.No wind94%29.86 "Hg5 mi
7:00 PM79 °FPartly cloudy.No wind94%29.77 "Hg5 mi
6:00 PM79 °FBroken clouds.No wind94%29.77 "Hg5 mi
5:00 PM81 °FBroken clouds.No wind84%29.74 "Hg5 mi
4:00 PM81 °FBroken clouds.No wind84%29.74 "Hg5 mi
3:00 PM81 °FPartly sunny.No wind79%29.80 "HgN/A
2:00 PM81 °FPartly sunny.No wind84%29.86 "HgN/A
1:00 PM77 °FPartly sunny.No wind94%29.89 "HgN/A
12:00 PM75 °FThunderstorms. More clouds than sun.No wind100%29.92 "Hg4 mi
11:00 AM77 °FThunderstorms. More clouds than sun.5 mph94%29.95 "Hg2 mi
10:00 AM77 °FThunderstorms. More clouds than sun.No wind94%29.92 "Hg4 mi
9:00 AM79 °FThunderstorms. Cloudy.No wind89%29.92 "HgN/A
8:00 AM77 °FThunderstorms. More clouds than sun.No wind100%29.92 "Hg4 mi
7:00 AM77 °FThunderstorms. More clouds than sun.No wind100%29.89 "Hg1 mi
6:00 AM77 °FThunderstorms. Fog.No wind94%29.86 "Hg2 mi
Weather by CustomWeather, © 2014

See weather overviewHow to use our weather pages